Theta_e
310 308 309 309 309 310 310 310 309 309 310 312 312 311 310 310 309 305 305 303 302 300 299 298 297 297 298 299 301 302 304 306 310 311 312 312 313 313 314 316 318 318 318 318
310 310 310 309 309 310 310 310 311 311 310 312 312 311 308 305 305 305 304 302 301 299 298 297 296 296 295 296 297 298 299 301 302 304 305 306 308 304 305 306 306 306 310 314
312 313 310 311 311 314 313 312 312 313 312 309 311 311 310 305 305 303 302 300 299 298 297 297 296 295 295 295 295 295 296 297 298 299 301 302 302 301 301 301 302 302 303 307
311 311 313 312 314 313 316 312 312 313 310 312 310 314 311 306 305 303 301 299 298 297 296 296 295 295 295 295 295 295 295 295 296 296 296 296 295 295 295 296 297 298 299 301
317 314 312 314 314 312 314 310 310 310 310 311 311 311 310 306 306 303 301 300 298 297 296 294 294 294 294 294 294 293 292 293 293 293 293 293 293 293 293 293 294 294 296 297
311 309 309 310 309 310 309 310 310 307 308 314 312 312 312 308 307 304 301 300 299 297 295 295 294 293 293 293 292 291 290 289 290 290 290 290 290 289 289 289 288 288 289 289
313 312 309 308 310 308 308 309 314 315 314 317 312 311 312 307 305 304 302 299 297 294 293 292 293 292 292 291 291 290 289 288 288 288 288 288 288 288 287 286 286 286 286 286
315 314 309 308 310 310 307 310 316 314 317 316 310 313 312 304 303 301 299 296 294 293 292 291 292 292 291 291 290 289 289 288 288 287 287 287 287 287 287 287 286 286 285 285
314 313 309 308 309 311 312 313 312 312 296 308 312 310 307 303 300 298 297 295 294 292 291 290 290 291 290 290 289 289 288 288 287 287 287 287 286 286 286 286 286 286 286 286
312 314 311 310 309 308 311 309 314 310 309 308 311 311 312 306 302 299 297 295 294 291 290 289 289 289 289 289 289 288 288 288 288 287 287 287 287 286 286 286 286 286 286 286
311 311 312 311 311 311 310 309 310 311 311 309 308 309 306 306 303 301 298 297 294 291 289 288 289 290 289 289 289 289 288 288 288 288 287 287 287 287 287 286 286 286 286 286
312 312 309 312 307 308 308 309 309 313 311 309 311 311 306 305 302 300 299 298 293 292 288 288 289 289 289 289 289 289 289 288 288 288 288 288 287 287 287 287 286 286 285 285
310 310 303 305 304 308 309 309 308 308 305 303 309 308 301 300 300 300 298 296 293 290 289 288 288 288 289 289 289 289 289 288 288 288 288 288 288 287 287 286 286 286 283 283
308 304 306 313 304 305 306 308 306 305 303 304 306 305 302 301 299 296 293 291 288 287 287 286 288 288 288 288 288 288 288 288 287 286 286 286 286 286 285 285 284 282 282 282
306 303 305 304 306 306 305 305 304 304 302 303 303 302 301 296 295 293 287 286 287 288 288 287 286 287 287 287 287 288 288 287 286 286 286 285 284 283 281 281 281 281 282 282
298 299 297 294 300 301 301 301 302 302 302 299 300 299 296 289 286 286 286 287 288 287 287 287 288 287 286 286 286 286 285 284 283 282 281 279 278 278 278 278 278 277 277 277
299 296 292 292 292 291 290 292 297 296 296 296 296 295 290 288 288 286 286 287 287 286 286 286 286 286 286 285 284 282 281 279 278 277 277 276 276 276 276 275 274 273 272 272
295 290 286 285 283 287 291 290 292 293 292 292 291 289 289 290 287 286 286 287 287 286 286 286 285 285 284 282 280 278 276 276 275 275 275 274 274 273 272 271 270 270 269 268
295 295 288 289 280 288 292 291 290 291 289 288 290 290 289 287 286 286 285 286 286 285 286 285 283 282 280 278 276 275 274 274 273 273 272 271 270 269 268 268 267 266 266 265
292 295 290 275 282 286 286 287 287 286 287 283 283 285 286 286 285 286 285 285 286 286 285 282 281 279 277 275 274 273 272 272 271 271 270 268 268 267 266 265 264 264 264 264
284 287 296 284 280 283 287 288 288 287 287 284 286 285 284 285 286 286 286 286 286 284 282 280 278 276 275 273 272 271 271 270 269 268 267 266 265 264 263 263 263 262 262 262
287 287 287 286 290 287 287 287 289 289 288 289 287 286 286 286 287 286 285 284 282 281 279 277 276 274 273 272 270 269 269 268 267 266 265 264 263 263 262 262 262 262 262 262
287 287 285 287 287 288 287 287 288 288 288 287 287 286 285 286 286 285 284 281 280 278 277 275 273 272 271 270 269 268 267 266 265 264 263 263 262 262 262 261 261 261 261 262
287 285 286 285 287 288 288 288 287 287 287 287 286 286 285 285 285 284 282 280 279 276 274 273 271 270 269 268 267 266 265 264 263 263 262 262 262 261 261 261 261 261 261 262
288 286 284 285 287 287 287 287 288 287 286 286 285 285 285 284 283 282 280 277 276 274 272 270 269 268 267 266 266 265 265 263 262 262 261 261 261 261 261 261 261 261 262 263
288 288 288 287 288 288 288 288 287 286 286 286 285 283 282 282 281 278 276 276 273 271 270 268 267 266 266 265 265 265 264 263 261 261 261 261 261 261 261 261 261 262 264 265
Wind_Speed
2 4 7 12 11 3 3 4 5 6 7 1 7 5 11 10 6 8 10 12 11 11 13 21 28 32 35 38 36 33 31 28 21 19 17 19 16 14 13 10 7 6 6 8
2 7 13 2 4 6 7 7 7 5 6 3 4 11 7 11 6 11 13 10 10 9 11 20 26 31 36 38 39 39 36 31 27 23 20 14 11 19 18 14 13 12 8 7
8 6 4 7 5 6 4 5 4 7 4 4 2 8 4 5 12 14 13 11 9 9 10 11 21 25 32 36 36 36 35 36 33 29 23 19 15 18 19 19 16 15 12 8
6 6 7 5 5 6 4 7 7 4 3 3 3 3 2 3 8 10 8 7 7 8 8 12 17 22 28 29 29 31 32 33 32 30 30 30 27 22 22 21 20 18 16 14
5 1 3 4 7 6 7 3 3 2 3 2 3 3 4 6 3 5 4 6 6 6 7 8 16 22 26 27 28 29 31 31 30 30 30 29 27 24 23 24 24 24 22 21
6 2 3 6 2 4 4 3 5 5 3 1 5 6 4 5 8 7 6 6 7 7 6 12 18 23 24 24 25 26 28 28 27 28 28 28 27 26 27 28 28 28 27 26
2 4 2 3 4 2 3 5 1 3 2 5 4 2 3 4 11 12 11 7 6 6 6 7 11 17 20 22 22 22 24 26 25 25 25 25 23 24 25 26 27 28 29 30
4 3 8 5 6 6 6 7 5 6 4 4 4 5 2 5 11 12 9 7 6 6 5 6 11 14 16 16 16 18 19 20 21 22 22 22 22 24 24 24 26 27 28 28
6 5 1 2 2 5 5 4 1 5 3 3 4 2 2 6 8 7 7 6 6 6 6 7 10 12 12 12 12 13 13 13 14 15 16 18 19 21 22 23 24 27 29 30
5 1 1 2 2 2 3 4 3 3 2 4 4 5 4 9 10 8 8 7 7 6 7 6 10 10 9 9 9 8 6 5 7 9 11 13 14 14 15 16 20 23 25 27
4 3 3 2 4 7 1 0 3 2 4 4 2 5 1 14 13 13 9 9 9 8 7 6 11 11 8 6 4 3 3 4 7 9 10 13 17 19 19 18 21 23 27 29
3 4 4 6 2 3 1 4 5 4 5 3 2 9 3 12 11 9 8 7 7 6 7 10 11 9 7 4 2 4 7 9 12 14 15 19 22 25 26 27 31 36 34 35
7 1 1 6 3 1 3 3 4 5 3 5 4 6 3 7 7 6 7 7 6 5 6 4 5 8 5 5 8 12 14 16 20 23 22 24 26 27 30 31 37 44 45 44
5 4 7 10 5 5 4 5 4 5 3 3 6 4 6 9 8 6 3 6 7 5 4 4 3 6 6 6 8 9 10 16 20 19 18 20 23 26 31 36 41 43 41 42
3 5 3 3 2 2 4 8 8 6 5 7 9 9 13 4 5 7 7 7 6 4 1 2 3 2 3 5 7 9 11 12 15 18 23 27 31 34 36 36 36 35 35 36
4 2 3 3 4 2 6 8 10 12 11 10 13 19 9 5 7 7 8 7 4 2 4 5 3 2 2 2 4 8 11 15 18 22 27 31 33 31 29 29 28 32 32 34
4 5 3 5 4 5 9 8 18 8 6 8 11 11 4 5 8 9 7 6 5 5 7 6 4 3 3 1 6 11 14 17 22 24 23 24 24 26 27 34 36 37 36 36
5 5 3 3 2 2 5 3 0 10 5 7 1 4 4 4 5 7 6 6 5 7 7 5 8 6 4 4 7 11 16 20 19 20 20 20 21 25 29 33 33 35 35 36
1 4 2 4 4 7 9 6 7 6 7 7 8 3 3 5 5 4 6 5 6 7 9 8 5 2 2 1 7 13 13 14 15 17 17 19 23 28 30 32 33 33 35 35
2 1 4 3 5 9 6 4 2 5 5 6 5 5 6 6 3 6 6 5 7 9 10 8 4 2 3 6 13 13 11 11 13 14 18 22 24 27 31 32 34 34 32 34
3 1 11 5 4 8 6 5 2 5 7 5 7 6 6 5 6 5 5 5 12 12 8 4 2 2 6 11 14 12 11 12 13 18 19 21 25 29 32 32 31 33 34 33
7 9 5 3 4 9 7 6 7 5 3 6 7 7 10 7 7 6 8 7 10 8 6 3 1 3 8 11 14 11 12 15 19 19 23 27 30 31 29 30 34 33 33 33
2 7 6 10 7 5 10 7 13 6 5 5 6 7 9 8 7 9 7 7 10 9 6 3 4 7 10 12 14 16 18 20 22 27 29 30 29 28 28 29 32 31 30 29
5 4 3 4 5 6 11 10 4 7 8 7 7 9 8 9 10 8 6 6 9 7 4 2 6 9 8 11 14 17 20 22 25 29 28 27 25 27 27 27 28 28 29 28
7 7 6 3 5 3 7 10 10 9 9 7 7 8 10 9 6 7 5 5 8 7 5 3 6 7 12 16 18 19 20 22 25 25 25 26 24 25 27 27 29 28 31 31
8 8 4 7 11 9 10 8 10 11 10 12 10 5 7 10 8 8 5 9 9 6 4 4 6 9 13 15 18 19 19 20 23 25 22 24 26 25 26 28 29 33 31 33
Wind_Direction
207 119 203 211 202 169 168 210 229 253 261 279 266 279 261 292 288 111 110 96 83 66 55 51 50 50 51 56 59 58 61 60 66 65 64 60 60 54 48 41 13 337 320 291
82 222 230 195 161 213 242 251 255 283 257 226 295 295 31 25 16 104 108 95 88 83 61 54 51 51 55 57 56 57 57 56 58 63 66 69 79 61 59 51 42 27 7 327
190 214 179 180 220 207 213 207 219 233 302 292 326 295 108 48 70 71 67 76 75 75 71 60 58 55 54 54 56 58 57 56 55 56 64 72 70 47 38 28 24 19 17 360
235 249 204 200 212 171 256 233 213 236 115 232 79 277 43 93 72 66 76 76 79 79 70 65 62 60 61 59 58 59 57 55 53 52 54 56 55 50 38 33 30 27 20 11
240 233 181 186 219 156 223 173 173 161 140 54 318 115 260 131 107 117 100 95 91 80 83 76 73 68 63 61 58 57 58 55 51 50 48 47 45 39 33 28 23 22 24 22
236 278 218 209 131 170 152 103 51 39 92 246 211 161 247 193 180 151 137 128 111 101 81 73 73 68 65 61 59 56 55 53 50 48 46 44 40 32 28 23 20 16 15 12
265 228 262 166 122 36 112 86 333 344 341 227 169 132 256 338 141 146 139 133 115 104 98 88 72 69 68 61 57 54 51 47 43 44 41 36 32 28 25 19 15 8 6 4
169 270 177 195 198 181 188 169 164 205 209 245 274 241 302 48 99 119 131 132 119 108 103 88 87 79 72 68 63 59 54 51 43 37 33 28 21 16 14 9 3 360 356 353
181 260 121 170 171 151 190 185 199 106 44 67 224 41 114 108 102 119 135 136 141 131 117 119 112 108 99 91 77 66 59 52 42 38 32 24 16 10 4 357 352 346 343 340
189 211 46 182 127 64 168 162 70 8 167 260 277 268 200 177 172 172 170 173 168 164 159 150 138 128 116 106 100 93 92 81 48 34 26 19 11 3 354 343 336 334 331 330
131 134 247 142 205 189 129 166 84 133 152 185 243 254 242 177 175 178 190 195 182 177 173 166 159 156 146 125 104 84 41 10 358 355 353 351 350 343 334 329 323 318 318 322
183 145 182 201 341 318 344 203 166 155 225 227 174 261 96 157 166 172 194 189 190 177 180 184 176 172 180 200 277 306 324 327 326 321 322 327 328 328 324 321 325 327 319 315
179 164 64 350 345 48 186 170 127 104 81 203 183 258 98 110 134 194 191 179 157 161 186 190 195 211 233 278 319 325 319 318 318 312 306 311 313 315 316 315 317 317 316 314
105 148 179 225 189 134 157 171 166 132 137 184 222 273 176 171 180 201 133 141 154 145 134 164 182 217 244 284 320 331 328 327 322 311 309 312 315 314 312 312 311 311 311 307
132 188 142 285 138 138 184 172 188 182 179 192 248 222 256 211 230 194 160 150 153 154 137 199 186 222 316 334 339 337 349 350 340 328 321 318 315 313 312 310 310 308 306 302
357 170 102 315 292 233 268 193 191 218 234 243 252 267 270 83 109 133 159 157 153 211 224 179 206 250 341 6 9 345 339 329 322 317 315 314 314 314 312 311 309 307 306 303
128 129 86 262 0 29 303 207 203 201 197 219 226 243 166 164 157 161 166 172 199 228 207 219 224 181 177 304 331 328 326 324 324 322 319 315 313 311 308 307 309 308 306 305
137 106 94 181 26 271 248 304 302 214 179 208 127 212 191 176 160 158 191 184 215 214 219 198 167 174 183 296 314 324 327 328 323 317 315 315 314 308 307 307 305 304 304 303
118 130 110 166 191 303 278 222 170 162 266 196 195 193 194 134 118 243 223 207 234 214 194 164 165 184 273 283 326 329 327 321 315 312 313 314 311 306 305 303 303 302 301 299
170 60 140 110 170 216 249 292 134 104 285 220 154 188 174 146 163 239 208 219 208 176 166 173 193 252 318 332 331 335 324 316 310 312 309 306 306 304 302 302 301 300 298 295
101 70 209 198 225 285 242 221 168 107 244 174 187 193 170 183 203 210 198 201 193 185 173 184 240 325 326 330 331 333 322 311 309 309 306 306 306 306 304 300 300 300 298 296
158 160 197 135 204 268 174 96 177 201 183 181 192 192 195 216 239 235 233 213 174 180 177 193 287 316 324 331 333 327 315 315 315 312 309 310 314 315 302 302 301 298 296 295
233 193 182 185 203 222 194 187 212 175 165 193 190 207 203 217 230 243 223 174 177 179 184 213 310 326 330 331 332 319 320 322 319 319 317 316 314 308 307 301 296 295 295 294
255 154 203 100 226 216 206 230 208 193 209 202 205 212 197 219 229 230 181 179 175 175 178 244 320 326 318 317 321 322 325 327 325 322 316 311 306 304 305 298 292 291 291 292
206 145 166 248 269 245 251 232 232 223 219 228 223 211 220 207 216 194 177 166 184 176 182 261 308 303 307 319 322 326 330 331 326 319 311 307 304 304 302 295 292 290 289 289
206 206 197 235 232 216 239 235 217 217 214 220 219 219 225 199 193 171 177 189 183 181 206 282 296 306 313 317 321 328 334 334 327 316 310 308 305 306 302 299 298 301 299 300